Volver al catálogo

TITAN 3C TRANSTAGE DEB

ActivoVLEO
NORAD 3462·DEBRIS·🇺🇸 United States

Lanzado Oct 15, 1965 desde Cape Canaveral Space Force Station

Loading…

Próximos Pases (próximas 24 horas)

TLE

ActualizadoSource: Space-Track

Época: Sep 14, 2026, 13:05 UTC

1 03462U 65082PT  26257.54515494  .00007457  00000-0  23084-3 0  9998
2 03462  32.0291  90.2183 0010223 272.8982  87.0512 15.32121868277223

Sigue TITAN 3C TRANSTAGE DEB en tiempo real con AllMySat

Download on the App Store